Regional Weather Roundup
Issued by NWS

Home | Current Version | Previous Version | Graphics & Text | Print | Product List | Glossary On
Versions: 1 2 3 4 5 6 7 8 9 10 11 12 13 14 15 16 17 18 19 20 21 22 23 24 25 26 27 28 29 30 31 32 33 34 35 36 37 38 39 40 41 42 43 44 45 46 47 48 49
000
ASUS45 KCYS 171810
RWRWY

WYOMING REGIONAL WEATHER ROUNDUP
NATIONAL WEATHER SERVICE CHEYENNE WY
1100 AM MST WED DEC 17 2014

NOTE:  "FAIR" INDICATES FEW OR NO CLOUDS BELOW 12,000 FEET
WITH NO SIGNIFICANT WEATHER AND/OR OBSTRUCTIONS TO VISIBILITY.

WYZ001-171900-
YELLOWSTONE NATIONAL PARK

CITY           SKY/WX    TMP DP  RH WIND       PRES   REMARKS
LK YELLOWSTONE   N/A     24  19  81 CALM      29.96F
6HR MIN TEMP:  18; 6HR MAX TEMP:  24; 6HR PCP:  0.02;

W YELLOWSTONE  NOT AVBL

$$
WYZ002>013-054>058-071-098>099-171900-
NORTHERN WYOMING

CITY           SKY/WX    TMP DP  RH WIND       PRES   REMARKS
JACKSON        CLOUDY   N/A N/A N/A N3        29.99S
CODY           PTSUNNY   25  21  86 NE5       29.92F WCI  19
GREYBULL       FAIR      20  15  81 S5        29.99F WCI  13
6HR MIN TEMP:  12; 6HR MAX TEMP:  22;

WORLAND        FAIR      11   8  88 S5        29.98S WCI   3
6HR MIN TEMP:  -2; 6HR MAX TEMP:  11;

SHERIDAN       FAIR      18  13  80 NW3       29.96S HAZE
6HR MIN TEMP:  15; 6HR MAX TEMP:  19;

BUFFALO        FAIR      31  27  85 CALM      29.92S
6HR MIN TEMP:  13; 6HR MAX TEMP:  31;

GILLETTE       FAIR      20  16  84 CALM      29.94F
6HR MIN TEMP:   8; 6HR MAX TEMP:  21;

HULETT           N/A    N/A N/A N/A MISG        N/A
NEWCASTLE      CLOUDY    19  19 100 CALM      29.98F FOG

$$
WYZ014>020-022>026-101>103-171900-
CENTRAL WYOMING

CITY           SKY/WX    TMP DP  RH WIND       PRES   REMARKS
BIG PINEY      FAIR      26  18  71 VRB3      29.99F
6HR MIN TEMP:   9; 6HR MAX TEMP:  26;

PINEDALE       FAIR      28  19  69 CALM      29.99F
DUBOIS         FAIR      32  19  59 N16G25    29.92S WCI  21
LANDER         FAIR       7   4  87 SE5       29.96F FOG     WCI  -2
6HR MIN TEMP:   0; 6HR MAX TEMP:  12;

RIVERTON       FOG       17  13  84 S3        29.98S VSB 1/4
6HR MIN TEMP:  13; 6HR MAX TEMP:  19;

CASPER         FAIR      32  21  64 SW16      29.94S WCI  21
6HR MIN TEMP:  20; 6HR MAX TEMP:  32;

DOUGLAS        FAIR      21  16  81 S3        29.94F
6HR MIN TEMP:   5; 6HR MAX TEMP:  21;


$$
WYZ021-027>030-104>119-171900-
SOUTHERN WYOMING

CITY           SKY/WX    TMP DP  RH WIND       PRES   REMARKS
EVANSTON       CLOUDY    29  20  69 VRB3      29.98S
6HR MIN TEMP:  22; 6HR MAX TEMP:  29;

KEMMERER       MOCLDY    28  21  74 N3        29.98F
FORT BRIDGER   CLOUDY    31  23  72 CALM      30.01S
ROCK SPRINGS   FAIR      17  16  95 CALM      30.00S
6HR MIN TEMP:   4; 6HR MAX TEMP:  18;

DIXON          MOCLDY    17  15  90 CALM      30.02F
RAWLINS        FAIR      30  21  69 SW8       29.97F WCI  22
6HR MIN TEMP:   9; 6HR MAX TEMP:  30;

SARATOGA       FAIR      27  21  80 CALM      29.99F
LARAMIE        FAIR      32  23  69 SW8       29.95F WCI  25
6HR MIN TEMP:  14; 6HR MAX TEMP:  32;

CHEYENNE       FAIR      42  24  49 W6        29.94F
6HR MIN TEMP:  29; 6HR MAX TEMP:  42;

TORRINGTON     CLOUDY    19  17  92 SE6       29.97F FOG     WCI  11
6HR MIN TEMP:  12; 6HR MAX TEMP:  19;

PINE BLUFFS    FAIR      32  27  80 CALM      29.96F

$$



USA.gov is the U.S. government's official web portal to all federal, state and local government web resources and services.